St. Cloud, MN

6:53 PM CDT on July 18, 2019 (GMT -0500)
Saint Cloud Regional

Weather History for KSTC - May, 2019

Change the Weather History Date:

Thursday, May 9, 2019

  Actual Average Record
Temperature  
Mean Temperature 43 °F 54 °F  
Max Temperature 53 °F 67 °F 91 °F (1928)
Min Temperature 33 °F 42 °F 21 °F (1945)
Degree Days  
Heating Degree Days 22 11  
Month to date heating degree days 172 111  
Since 1 July heating degree days 8970 8278  
Cooling Degree Days 0 1  
Month to date cooling degree days 0 1  
Year to date cooling degree days 0 3  
Moisture  
Dew Point 34 °F    
Average Humidity 75    
Maximum Humidity 100    
Minimum Humidity 50    
Precipitation  
Precipitation 0.07 in 0.09 in 3.22 in (1979)
Month to date precipitation 1.37 0.86  
Year to date precipitation 8.72 6.22  
Snow  
Snow T in 0.00 in T in (2019)
Month to date snowfall 0.4 0.0  
Since 1 July snowfall 68.9 45.7  
Snow Depth 0.00 in    
Sea Level Pressure  
Sea Level Pressure 29.96 in    
Wind  
Wind Speed 12 mph (North)    
Max Wind Speed 23 mph    
Max Gust Speed 32 mph    
Visibility 8 miles    
Events Snow    
T = Trace of Precipitation, MM = Missing Value Source: NWS Daily Summary

Daily Weather History Graph

Daily Weather History Graph

Search for Another Location

Airport or City:

Astronomy

May. 09, 2019 Rise Set
Actual Time 5:53 AM CDT 8:32 PM CDT
Civil Twilight 5:19 AM CDT 9:06 PM CDT
Nautical Twilight 4:36 AM CDT 9:49 PM CDT
Astronomical Twilight 3:47 AM CDT 10:39 PM CDT
Moon 9:44 AM CDT (5/9) 12:37 AM CDT (5/9)
Length of Visible Light 15h 47m
Length of Day
14h 39m
Waxing Crescent, 25% of the Moon is Illuminated
May 9
Waxing Crescent
May 11
First Quarter
May 18
Full
May 26
Last Quarter
Jun 3
New

Hourly Weather History & Observations

Time (CDT) Temp. Windchill Dew Point Humidity Pressure Visibility Wind Dir Wind Speed Gust Speed Precip Events Conditions
12:35 AM 33.1 °F 23.0 °F 32.0 °F 96% 29.86 in 1.8 mi North 15.0 mph 26.5 mph 0.04 in Snow Light Snow
12:53 AM 33.1 °F 23.9 °F 32.0 °F 96% 29.91 in 2.0 mi North 12.7 mph 23.0 mph 0.05 in Snow Light Snow
1:20 AM 33.1 °F 23.4 °F 32.0 °F 96% 29.85 in 3.0 mi North 13.8 mph 25.3 mph 0.03 in Snow Light Snow
1:39 AM 33.1 °F 23.4 °F 32.0 °F 96% 29.85 in 2.5 mi North 13.8 mph 25.3 mph 0.04 in Snow Light Snow
1:48 AM 33.8 °F 24.3 °F 32.0 °F 93% 29.84 in 4.0 mi North 13.8 mph 24.2 mph 0.04 in Snow Light Snow
1:49 AM 33.1 °F 23.0 °F 32.0 °F 96% 29.90 in 4.0 mi North 15.0 mph 24.2 mph 0.04 in Snow Light Snow
2:04 AM 34.0 °F 24.6 °F 32.0 °F 92% 29.84 in 7.0 mi North 13.8 mph - 0.00 in Snow Light Snow
2:53 AM 34.0 °F 24.6 °F 32.0 °F 92% 29.90 in 9.0 mi North 13.8 mph 21.9 mph 0.02 in Snow Light Snow
3:53 AM 34.0 °F 25.5 °F 33.1 °F 96% 29.91 in 7.0 mi North 11.5 mph 20.7 mph 0.00 in Snow Light Snow
4:53 AM 35.1 °F 25.9 °F 33.1 °F 92% 29.91 in 10.0 mi North 13.8 mph 21.9 mph 0.01 in   Overcast
5:17 AM 35.1 °F 26.9 °F 33.1 °F 92% 29.86 in 10.0 mi North 11.5 mph - N/A   Overcast
5:53 AM 35.1 °F 25.9 °F 33.1 °F 92% 29.92 in 10.0 mi North 13.8 mph 24.2 mph N/A   Overcast
6:35 AM 35.1 °F 25.9 °F 33.1 °F 92% 29.88 in 10.0 mi NNW 13.8 mph 26.5 mph N/A   Overcast
6:53 AM 36.0 °F 27.1 °F 33.1 °F 89% 29.95 in 10.0 mi North 13.8 mph 25.3 mph N/A   Overcast
7:53 AM 37.0 °F 28.5 °F 34.0 °F 89% 29.96 in 10.0 mi North 13.8 mph 25.3 mph 0.00 in   Overcast
8:53 AM 37.9 °F 28.5 °F 35.1 °F 89% 29.98 in 10.0 mi North 17.3 mph 24.2 mph 0.00 in   Overcast
9:53 AM 39.9 °F 31.1 °F 34.0 °F 79% 29.97 in 10.0 mi North 17.3 mph 27.6 mph N/A   Overcast
10:53 AM 42.1 °F 34.2 °F 35.1 °F 76% 29.99 in 10.0 mi North 16.1 mph 27.6 mph N/A   Overcast
11:53 AM 45.0 °F 37.6 °F 35.1 °F 68% 30.01 in 10.0 mi North 17.3 mph 28.8 mph N/A   Overcast
12:13 PM 46.0 °F 37.8 °F 36.0 °F 68% 29.95 in 10.0 mi North 23.0 mph 29.9 mph N/A   Mostly Cloudy
12:53 PM 48.0 °F - 36.0 °F 63% 30.00 in 10.0 mi North 15.0 mph 28.8 mph N/A   Mostly Cloudy
1:53 PM 50.0 °F - 37.9 °F 63% 30.03 in 10.0 mi NW 15.0 mph - 0.00 in   Mostly Cloudy
2:53 PM 52.0 °F - 36.0 °F 54% 30.04 in 10.0 mi North 16.1 mph - N/A   Mostly Cloudy
3:53 PM 53.1 °F - 37.0 °F 55% 30.02 in 10.0 mi NW 10.4 mph - N/A   Mostly Cloudy
4:53 PM 52.0 °F - 35.1 °F 53% 30.03 in 10.0 mi NNW 15.0 mph 24.2 mph N/A   Overcast
5:53 PM 52.0 °F - 34.0 °F 50% 30.03 in 10.0 mi North 13.8 mph 24.2 mph N/A   Overcast
6:53 PM 51.1 °F - 34.0 °F 52% 30.04 in 10.0 mi North 12.7 mph - N/A   Overcast
7:53 PM 50.0 °F - 36.0 °F 59% 30.05 in 10.0 mi North 6.9 mph - N/A   Scattered Clouds
8:53 PM 46.9 °F - 35.1 °F 63% 30.06 in 10.0 mi North 3.5 mph - N/A   Clear
9:53 PM 45.0 °F 42.6 °F 34.0 °F 65% 30.08 in 10.0 mi NNW 4.6 mph - N/A   Partly Cloudy
10:53 PM 42.1 °F - 33.1 °F 70% 30.09 in 10.0 mi Calm Calm - N/A   Clear
11:53 PM 37.9 °F - 33.1 °F 83% 30.11 in 10.0 mi Calm Calm - N/A   Clear